Theta_e
314 309 307 304 295 293 288 291 295 298 297 299 306 303 306 308 306 296 323 332 337 338 340 343 345 343 342 343 343 346 344 340 340 341 341 341 342 342 342 343 344 343 341 342 343 343 341 341 340
308 309 305 298 292 288 289 291 297 297 304 309 307 308 306 305 317 322 325 335 338 338 339 341 343 343 342 342 343 345 343 340 338 339 340 340 339 338 337 339 341 340 340 341 342 341 340 339 338
309 306 301 293 289 289 290 292 297 301 308 300 306 310 309 308 317 323 328 337 337 336 338 340 343 343 342 342 342 343 342 340 339 338 337 338 338 339 338 338 341 341 340 339 340 340 339 338 337
305 302 298 290 289 292 292 294 299 301 298 307 309 307 312 320 323 327 337 336 334 334 336 340 344 344 342 343 342 342 342 340 339 338 337 337 338 338 338 336 336 338 338 338 339 339 338 337 336
303 298 292 288 289 291 292 297 299 298 297 301 303 305 309 319 328 335 336 334 331 331 334 339 343 343 343 342 341 341 340 341 340 339 339 339 339 338 338 337 336 337 335 336 338 338 336 336 335
298 297 291 288 288 292 295 298 299 296 298 303 307 308 309 321 331 333 333 330 332 332 333 337 336 339 341 341 341 341 340 340 341 339 337 339 341 339 338 337 336 335 334 335 334 334 334 333 333
297 294 290 289 288 293 297 298 296 296 300 302 312 306 308 323 330 332 330 330 331 332 332 333 336 336 335 337 338 338 339 340 340 340 339 338 339 339 338 337 336 334 333 333 331 331 332 332 331
300 295 288 288 290 293 295 297 297 298 296 308 310 303 306 317 330 330 330 329 330 331 330 330 331 334 334 333 332 334 335 337 336 334 331 330 332 333 333 331 334 333 332 331 330 331 331 329 328
300 293 288 291 292 294 295 296 295 298 300 303 307 311 313 325 331 330 329 329 328 330 329 328 328 330 332 331 328 329 330 331 329 327 324 322 323 325 327 328 332 333 331 329 328 327 326 324 325
298 291 292 294 295 294 296 295 296 298 301 304 308 313 321 327 328 327 326 325 325 326 328 327 327 327 332 335 328 328 328 324 322 320 319 320 320 322 324 323 327 329 328 330 328 326 322 318 313
297 293 295 295 296 297 295 293 296 297 297 301 307 313 321 324 325 325 327 327 325 326 327 327 326 326 332 334 333 331 324 321 320 318 318 318 318 318 318 318 317 316 317 316 316 315 314 313 312
295 298 295 296 296 297 295 295 294 297 297 299 309 318 322 322 323 324 325 325 325 325 327 327 326 326 329 332 332 330 326 320 319 318 318 317 316 315 314 314 313 313 313 313 312 312 313 312 312
296 295 296 295 295 296 296 294 293 296 296 302 317 318 320 322 323 324 325 326 327 324 325 326 326 325 328 330 330 328 327 320 319 319 318 317 316 314 314 313 312 312 312 312 311 311 311 311 311
294 296 293 294 293 294 294 293 293 294 301 311 316 315 316 320 322 318 319 322 324 325 324 326 326 326 327 328 329 324 323 322 320 318 319 318 317 315 314 313 312 311 311 311 311 311 310 310 309
299 291 292 291 292 292 294 290 293 292 301 310 312 313 315 316 317 320 321 322 324 325 326 326 326 327 326 327 329 327 324 323 321 321 320 319 317 316 314 313 312 312 311 311 310 309 309 309 309
291 290 287 290 293 291 292 289 293 294 301 305 309 310 313 316 317 319 321 321 323 324 324 327 329 327 326 326 327 328 326 325 324 325 327 322 321 317 315 313 312 312 311 310 308 308 307 307 306
289 284 285 289 292 291 291 291 291 291 297 299 306 309 311 313 316 317 320 321 323 324 324 325 326 327 327 328 329 328 328 327 328 329 328 324 322 321 320 318 314 313 311 309 308 307 306 305 306
284 283 284 287 290 289 288 291 291 290 292 295 297 304 307 310 315 319 318 321 323 324 324 325 325 326 327 328 327 329 328 329 329 328 327 325 323 321 320 318 317 314 310 308 307 307 307 306 304
286 286 285 286 289 288 288 288 291 290 288 289 291 293 298 303 313 311 316 318 320 321 323 323 323 323 325 322 324 327 326 327 327 327 327 326 325 322 320 319 317 316 314 311 311 310 310 309 307
284 284 282 286 289 288 285 288 290 289 290 291 291 290 292 295 296 296 299 311 316 321 323 324 323 323 324 325 322 323 324 327 329 328 327 327 326 323 321 319 317 316 313 311 311 310 308 308 307
282 282 282 284 285 286 284 285 287 289 289 290 291 292 292 294 296 294 293 295 308 316 320 322 323 323 324 325 321 319 321 325 326 325 325 325 326 324 322 320 318 316 315 314 312 311 309 307 305
281 286 285 285 283 280 282 278 283 285 288 288 292 291 294 295 292 292 293 292 299 310 315 320 321 322 323 323 322 322 322 321 322 322 322 323 325 325 324 322 320 318 316 314 314 311 311 309 307
285 286 285 283 280 279 278 278 282 282 284 287 291 293 295 295 293 292 294 294 296 303 307 311 315 317 320 322 324 322 322 322 319 320 323 324 324 325 323 322 321 319 317 317 314 311 311 311 310
287 285 283 280 279 275 279 279 279 281 287 288 288 289 290 291 292 293 293 298 300 303 303 304 304 306 314 320 322 322 322 319 318 321 321 323 323 322 322 321 321 319 317 315 315 314 313 311 310
284 282 276 275 274 275 277 276 283 286 287 286 287 288 288 288 290 293 297 300 301 302 302 304 304 302 301 305 321 322 322 320 320 323 322 319 320 319 319 319 318 317 317 316 315 313 312 311 309
283 283 277 272 272 276 279 276 282 287 288 288 288 288 289 289 290 293 296 297 299 301 302 302 302 301 300 299 301 318 323 323 323 322 320 320 318 316 316 318 317 317 316 316 314 312 311 309 307
283 280 284 277 267 273 276 279 284 287 286 287 287 288 289 290 291 293 295 296 296 299 300 301 302 302 304 303 301 310 314 319 317 314 314 312 311 309 310 309 308 308 308 309 308 306 304 304 303
285 287 281 279 272 271 275 276 279 283 286 286 286 288 288 289 291 293 294 294 295 297 298 299 301 303 307 308 306 308 311 312 312 311 309 307 306 305 305 305 304 303 303 303 303 301 300 299 299
283 281 281 282 279 274 272 276 282 285 285 286 286 287 288 290 291 292 293 294 294 294 295 297 298 299 300 304 305 306 306 307 307 306 304 303 303 303 301 300 299 298 297 297 297 297 297 296 295
284 284 285 282 276 277 277 279 283 284 284 285 286 287 289 290 291 292 292 292 292 293 293 295 296 297 297 300 301 301 301 300 300 299 296 296 296 296 293 293 292 291 291 292 294 293 293 292 291
Wind_Speed
6 6 2 6 6 6 0 2 1 3 3 1 5 5 5 3 4 4 1 4 9 7 6 7 13 12 11 11 9 13 15 15 15 15 15 15 14 16 16 15 16 16 17 17 17 18 18 18 18
5 4 5 3 7 4 4 2 5 3 3 7 6 3 4 2 2 6 7 4 8 8 6 6 12 13 12 11 10 13 14 13 15 15 15 15 16 13 13 15 14 15 16 17 17 18 17 17 17
2 5 5 6 4 5 4 4 5 3 6 0 4 4 3 3 2 7 2 9 8 7 6 6 11 12 12 12 11 11 13 12 14 14 15 15 15 14 13 13 13 16 17 17 15 16 17 17 16
4 5 5 5 4 4 5 5 5 7 2 3 3 6 1 3 7 6 11 9 8 6 7 8 12 13 12 11 12 11 11 12 13 13 14 14 12 15 13 13 13 14 16 14 15 17 15 15 16
5 3 4 2 3 2 3 3 7 5 4 3 1 4 2 2 5 13 13 9 9 6 5 6 11 12 12 11 11 12 10 10 12 12 12 11 12 15 14 14 13 14 15 15 16 15 15 15 15
4 3 3 3 4 3 2 5 7 4 3 3 5 5 3 1 11 12 10 8 6 9 5 5 9 10 10 10 10 10 11 9 11 11 10 10 15 14 14 14 13 13 14 14 15 15 15 14 14
5 4 4 4 3 2 4 7 6 6 6 4 9 7 1 5 6 8 7 8 6 6 6 5 6 7 9 9 9 8 10 10 9 11 11 10 12 11 11 12 12 13 13 13 14 13 13 13 13
5 5 4 3 4 4 4 5 3 6 4 2 2 6 5 6 8 8 7 7 6 5 5 5 4 5 5 6 8 8 9 10 9 8 8 9 9 10 9 9 10 11 12 13 13 14 13 12 11
3 5 3 5 6 5 4 5 1 2 6 1 3 5 2 14 13 9 9 6 8 7 5 5 4 5 5 5 5 7 7 8 8 7 8 7 4 5 6 6 9 9 9 11 12 12 11 10 10
4 4 7 5 3 5 6 5 9 4 4 3 2 3 7 17 16 13 11 10 10 11 9 5 5 5 5 4 5 4 5 4 4 5 5 3 4 4 5 6 8 8 7 8 9 9 8 6 3
3 4 1 2 4 2 5 3 4 7 3 8 9 7 14 16 16 15 12 11 11 12 9 8 6 5 8 5 3 2 2 2 3 4 4 4 3 4 3 3 2 3 5 3 4 4 4 4 3
3 4 3 2 4 2 6 7 5 6 6 3 9 15 16 19 18 17 15 15 14 12 11 8 7 6 7 5 3 4 4 3 2 4 5 4 2 3 2 2 1 2 1 3 3 2 3 4 4
3 3 1 2 4 3 6 4 5 7 2 2 10 13 14 15 14 11 11 10 13 12 8 8 7 6 7 8 3 3 4 3 3 3 4 4 3 3 2 2 1 0 1 1 1 2 2 2 3
4 5 1 1 2 1 2 2 3 5 5 6 10 12 10 14 14 7 7 10 10 9 9 9 9 8 8 9 7 4 4 4 4 3 4 5 4 4 3 2 2 2 1 0 0 1 2 3 2
4 4 3 2 1 1 2 0 8 2 3 8 8 7 7 7 8 14 12 10 11 8 9 11 11 9 9 10 9 6 5 5 5 4 6 6 5 5 5 3 3 3 2 1 0 1 2 2 3
3 2 1 2 4 1 3 8 4 5 8 9 8 7 7 8 9 7 7 7 8 8 10 10 9 11 10 8 8 6 5 5 5 5 5 7 7 6 5 4 4 3 2 1 0 0 1 2 2
2 3 3 5 2 2 3 7 3 2 6 7 8 7 7 6 8 8 8 8 8 11 10 10 10 12 12 10 8 7 7 6 6 6 5 7 8 7 5 5 4 5 3 2 2 2 2 2 2
6 5 3 5 3 2 3 9 5 2 6 9 8 8 8 8 17 11 10 9 8 9 9 11 10 11 10 7 6 5 5 5 5 5 5 7 6 7 6 4 4 4 3 3 3 4 3 3 2
5 7 6 1 3 2 6 9 9 5 4 8 9 8 9 14 14 8 8 9 9 8 10 11 12 10 8 3 4 4 4 4 3 4 7 7 6 7 7 4 4 4 5 7 5 3 4 3 2
3 4 4 2 1 4 1 11 10 5 7 9 10 9 12 7 9 8 9 8 11 13 13 11 11 10 9 6 3 3 4 3 3 5 5 8 7 7 6 6 5 5 3 4 4 4 1 1 3
3 6 5 5 1 0 3 8 6 6 5 6 7 10 8 15 14 9 9 10 8 11 12 12 12 11 10 9 4 3 3 2 3 2 3 5 8 8 8 8 6 6 5 5 5 6 7 3 2
5 5 4 5 4 5 3 7 6 6 9 6 12 11 17 15 9 8 8 7 10 12 7 10 9 9 8 8 7 8 8 8 4 4 4 5 8 9 9 10 9 8 6 7 7 5 5 4 4
8 5 6 3 3 1 1 2 9 1 6 11 15 18 17 13 9 10 10 9 7 6 7 6 7 7 8 9 10 8 9 6 4 3 5 5 5 6 7 9 9 9 7 7 7 5 5 4 3
10 8 7 5 3 3 6 6 6 6 10 9 5 8 9 9 9 9 5 5 5 5 5 6 7 6 6 8 11 13 12 8 6 6 5 4 4 4 6 6 5 5 5 5 4 4 6 5 4
5 9 1 1 1 7 2 3 9 9 10 7 4 7 5 6 8 8 9 8 6 7 5 5 5 6 6 7 9 12 11 9 10 9 7 5 3 3 3 4 4 3 4 4 4 5 5 5 4
7 10 8 7 4 4 3 9 9 10 7 8 8 7 6 5 6 8 8 6 7 7 6 6 6 6 7 7 8 7 9 7 7 6 4 3 2 3 1 3 3 4 3 4 4 3 2 2 2
6 5 7 8 2 4 6 7 11 11 11 9 9 7 8 7 6 6 6 7 6 6 7 6 5 3 3 6 6 7 6 6 5 5 4 4 5 4 4 6 6 5 5 6 6 5 4 5 4
9 12 5 2 4 5 5 5 8 6 9 7 7 9 7 4 6 7 6 6 5 5 4 4 5 5 3 4 4 4 5 6 7 7 7 6 6 5 6 7 7 7 7 7 7 6 6 7 5
5 5 4 7 5 6 1 7 9 9 4 6 7 6 8 8 8 7 6 6 5 3 4 3 3 3 3 3 3 6 6 7 6 7 7 7 7 7 8 7 7 7 7 6 8 7 6 7 7
2 8 8 8 5 2 4 9 3 6 4 6 7 5 5 7 8 7 6 6 5 4 4 6 5 5 4 3 4 5 6 6 7 7 7 6 7 7 7 7 7 7 7 7 8 7 6 7 7
Wind_Direction
347 344 41 37 58 66 337 220 268 135 158 174 109 139 179 79 150 200 308 160 130 131 140 125 119 116 118 101 94 105 99 91 94 94 87 89 87 90 85 76 75 71 77 71 80 81 79 78 76
345 357 40 72 85 73 268 265 172 198 141 125 87 84 50 86 67 123 119 158 126 129 120 122 123 123 125 110 95 104 99 100 99 100 92 90 84 81 86 78 79 84 82 81 77 80 78 74 73
52 39 75 89 110 162 204 211 155 103 154 12 102 43 132 158 56 155 145 130 117 120 121 134 127 125 127 116 104 97 102 101 102 95 96 94 94 95 92 95 92 82 77 72 76 86 80 78 74
30 14 42 85 191 227 197 180 153 135 257 74 130 72 26 250 155 165 135 120 117 125 132 141 135 132 129 119 117 103 104 113 101 104 104 101 97 100 91 99 95 86 82 79 83 81 80 77 76
37 59 64 55 250 255 250 191 152 153 155 116 240 161 39 48 115 140 140 129 135 130 141 140 140 135 133 127 124 117 107 89 116 113 103 106 106 102 95 95 90 84 87 82 80 81 79 77 76
43 88 69 199 263 262 249 168 141 148 155 149 83 112 170 86 140 152 139 128 136 138 142 135 137 135 132 130 125 122 120 101 118 109 96 83 107 106 104 100 94 93 91 84 80 79 80 78 76
116 93 204 178 260 301 205 150 166 156 143 216 152 123 206 185 162 141 132 120 126 127 131 129 135 139 134 130 128 124 121 109 95 107 99 86 82 92 95 98 100 98 93 86 78 75 82 79 77
101 89 132 222 193 246 183 168 158 152 184 89 171 172 209 198 142 115 113 114 123 130 134 134 134 131 133 135 133 126 120 112 107 99 92 89 91 90 86 85 97 96 94 88 80 77 84 80 76
123 74 201 219 159 231 149 162 95 96 118 206 166 155 245 134 130 134 137 123 155 165 143 138 148 144 138 137 136 126 121 121 114 102 92 84 94 95 95 98 94 95 92 96 87 81 80 76 74
99 128 214 215 232 201 191 171 160 144 125 219 165 24 115 147 155 162 166 164 177 178 180 163 158 159 148 145 139 130 123 121 122 124 112 102 109 111 106 93 85 81 75 74 79 70 63 63 58
140 192 175 288 264 218 180 192 172 122 236 217 188 161 155 161 170 177 177 177 183 185 186 179 165 162 168 153 150 133 123 139 138 142 127 119 99 88 88 95 81 85 61 53 53 44 47 55 72
187 229 197 290 331 193 190 131 182 187 216 264 187 162 159 172 179 182 184 186 189 188 191 178 164 160 172 173 173 150 147 163 163 160 148 138 128 119 120 104 88 61 65 96 60 40 42 53 51
221 225 127 328 347 251 144 183 191 219 355 66 130 155 172 177 183 184 186 187 186 190 186 179 162 169 171 182 185 168 160 169 188 175 171 157 161 165 153 162 154 114 52 89 55 29 22 28 26
317 269 187 4 347 37 201 129 170 219 123 118 151 171 176 182 187 170 176 188 186 183 185 174 178 175 165 186 184 176 165 169 180 192 191 189 178 180 182 187 201 186 174 117 124 345 0 350 359
294 315 348 190 63 298 293 192 224 97 127 161 180 181 186 196 184 201 194 188 184 188 183 181 182 177 178 184 191 185 189 177 182 193 196 200 190 191 185 194 214 218 194 184 98 6 10 344 338
330 54 294 295 131 349 102 261 327 156 151 195 197 198 201 212 215 211 203 194 185 174 180 180 184 186 185 186 185 192 188 186 199 197 193 195 196 193 181 192 218 211 197 182 212 226 286 276 276
79 158 189 300 146 138 126 259 258 147 179 211 212 212 214 228 243 227 209 200 187 187 182 183 183 187 191 190 190 189 190 198 206 200 197 196 191 189 189 194 196 185 191 192 203 234 207 258 271
164 151 218 215 196 80 155 252 236 314 202 224 223 227 225 226 234 221 210 196 193 191 189 190 186 188 187 184 180 170 177 196 193 194 198 189 189 184 188 189 197 180 176 207 208 221 213 229 249
159 163 196 282 13 140 217 258 263 229 250 250 240 224 233 231 237 217 211 200 194 190 191 193 188 189 177 159 167 169 211 201 202 197 195 187 186 185 185 194 186 185 189 205 193 201 230 264 178
139 148 193 278 174 158 262 260 254 195 234 210 227 227 233 242 245 230 219 195 195 203 198 200 204 191 194 186 177 159 162 179 195 201 206 197 190 183 190 190 198 191 203 208 198 181 193 237 181
133 161 184 202 82 149 334 277 260 238 229 234 227 231 228 226 235 231 218 212 202 205 195 196 202 196 193 190 140 104 97 89 157 175 194 201 193 190 192 197 187 192 187 219 201 190 187 208 206
163 204 147 152 117 232 129 278 258 242 244 216 236 229 232 227 225 229 213 207 206 213 189 191 187 189 190 179 181 190 205 215 200 188 204 204 206 209 199 194 194 199 199 207 215 188 198 170 219
213 140 140 122 124 28 264 269 265 178 257 248 235 230 234 230 209 220 211 208 196 175 198 185 170 172 168 179 189 190 202 208 182 188 204 216 205 200 207 205 197 202 205 220 202 189 200 202 222
149 85 53 60 101 272 214 188 255 186 205 250 234 229 234 227 217 214 203 165 149 143 167 171 174 187 178 178 194 195 203 190 183 210 213 210 209 194 214 210 201 200 189 194 204 212 208 210 211
103 105 0 307 285 220 9 242 250 264 242 226 252 270 285 253 220 187 177 172 167 158 167 166 170 196 197 199 204 203 203 193 201 209 209 200 187 199 215 196 189 174 189 184 173 179 188 196 200
177 155 151 197 204 250 60 241 251 249 290 254 243 247 269 259 219 196 182 166 160 160 171 162 180 208 207 206 216 211 194 197 207 205 188 177 134 103 66 144 136 140 160 174 174 168 153 156 188
200 181 146 105 14 45 236 297 293 274 255 248 251 240 242 238 224 185 155 172 162 163 182 181 175 183 205 218 212 212 190 168 147 130 123 125 111 98 87 85 88 79 73 74 73 67 71 78 69
183 151 145 29 153 254 269 272 240 282 263 235 239 237 237 218 197 187 180 169 184 184 157 153 178 180 185 195 185 162 136 127 126 137 127 117 109 112 102 91 85 78 72 77 86 80 70 80 62
146 167 101 126 167 174 296 264 221 252 319 266 250 216 212 202 203 194 189 187 179 139 146 163 160 154 156 136 116 121 124 117 118 119 119 119 114 118 97 101 98 92 93 87 89 83 88 90 84
182 168 159 182 206 269 132 258 201 239 238 292 287 243 208 202 196 195 187 168 170 176 170 177 172 163 147 129 119 112 107 109 119 121 116 115 116 96 110 112 106 103 96 92 97 99 95 98 94